Valdosta, GA

7:36 AM EDT on June 26, 2017 (GMT -0400)
Moody Air Force Base

Weather History for KVAD - November, 2012

Change the Weather History Date:

Tuesday, November 13, 2012

  Actual Average Record
Temperature  
Mean Temperature 64 °F -  
Max Temperature 71 °F 68 °F 81 °F (2008)
Min Temperature 57 °F 48 °F 33 °F (2010)
Degree Days  
Heating Degree Days 1    
Growing Degree Days 14 (Base 50)    
Moisture  
Dew Point 59 °F    
Average Humidity 92    
Maximum Humidity 100    
Minimum Humidity 61    
Precipitation  
Precipitation 0.00 in - - ()
Sea Level Pressure  
Sea Level Pressure 30.20 in    
Wind  
Wind Speed 3 mph (NNW)    
Max Wind Speed 12 mph    
Max Gust Speed -    
Visibility 7 miles    
Events Rain    
Averages and records for this station are not official NWS values.
T = Trace of Precipitation, MM = Missing Value Source: NWS Daily Summary

Daily Weather History Graph

Daily Weather History Graph

Search for Another Location

Airport or City:

Trip Planner

Search our weather history database for the weather conditions in past years. The results will help you decide how hot, cold, wet, or windy it might be!

Date:

Astronomy

Nov. 13, 2012 Rise Set
Actual Time 6:58 AM EST 5:35 PM EST
Civil Twilight 6:32 AM EST 6:01 PM EST
Nautical Twilight 6:03 AM EST 6:30 PM EST
Astronomical Twilight 5:34 AM EST 6:58 PM EST
Moon 6:34 AM EST (11/13) 5:29 PM EST (11/13)
Length of Visible Light 11h 28m
Length of Day
10h 37m
Waning Crescent, 0% of the Moon is Illuminated
Nov 13
Waning Crescent
Nov 13
New
Nov 20
First Quarter
Nov 28
Full
Dec 6
Last Quarter

Hourly Weather History & Observations

Time (EST) Temp. Dew Point Humidity Pressure Visibility Wind Dir Wind Speed Gust Speed Precip Events Conditions
12:42 AM 62.6 °F 62.6 °F 100% 30.19 in 2.5 mi Calm Calm - N/A   Mostly Cloudy
12:44 AM 62.6 °F 62.6 °F 100% 30.19 in 2.5 mi Calm Calm - N/A   Mostly Cloudy
12:45 AM 62.6 °F 62.6 °F 100% 30.19 in 2.0 mi Calm Calm - N/A   Mostly Cloudy
12:46 AM 62.6 °F 62.6 °F 100% 30.19 in 2.0 mi Calm Calm - N/A   Mostly Cloudy
12:55 AM 62.6 °F 62.6 °F 100% 30.19 in 1.8 mi Calm Calm - N/A   Scattered Clouds
1:05 AM 62.6 °F 62.6 °F 100% 30.19 in 1.5 mi Calm Calm - N/A   Partly Cloudy
1:10 AM 60.8 °F 60.8 °F 100% 30.18 in 1.2 mi Calm Calm - N/A   Partly Cloudy
1:23 AM 60.8 °F 60.8 °F 100% 30.18 in 1.5 mi Calm Calm - N/A   Scattered Clouds
1:25 AM 60.8 °F 60.8 °F 100% 30.18 in 1.5 mi Calm Calm - N/A   Mostly Cloudy
1:30 AM 60.8 °F 60.8 °F 100% 30.18 in 1.8 mi Calm Calm - N/A   Scattered Clouds
1:53 AM 60.8 °F 60.8 °F 100% 30.18 in 1.5 mi Calm Calm - N/A Rain Light Rain
1:55 AM 60.1 °F 60.1 °F 100% 30.18 in 1.5 mi Calm Calm - 0.00 in Rain Light Rain
2:00 AM 60.8 °F 60.8 °F 100% 30.17 in 1.8 mi Calm Calm - N/A Rain Light Rain
2:03 AM 60.8 °F 60.8 °F 100% 30.17 in 1.5 mi Calm Calm - N/A   Mostly Cloudy
2:06 AM 60.8 °F 60.8 °F 100% 30.17 in 1.2 mi Calm Calm - N/A   Mostly Cloudy
2:09 AM 60.8 °F 60.8 °F 100% 30.17 in 1.0 mi Calm Calm - N/A   Mostly Cloudy
2:22 AM 59.0 °F 59.0 °F 100% 30.17 in 1.2 mi Calm Calm - N/A   Overcast
2:27 AM 59.0 °F 59.0 °F 100% 30.17 in 1.5 mi Calm Calm - N/A   Overcast
2:46 AM 60.8 °F 60.8 °F 100% 30.17 in 1.2 mi Calm Calm - N/A   Overcast
2:50 AM 60.8 °F 60.8 °F 100% 30.16 in 1.5 mi Calm Calm - N/A   Overcast
2:55 AM 59.7 °F 59.7 °F 100% 30.16 in 1.8 mi Calm Calm - 0.00 in   Overcast
3:25 AM 60.8 °F 60.8 °F 100% 30.17 in 2.0 mi Calm Calm - N/A   Overcast
3:27 AM 60.8 °F 60.8 °F 100% 30.17 in 2.0 mi Calm Calm - N/A   Overcast
3:29 AM 60.8 °F 60.8 °F 100% 30.17 in 2.5 mi WNW 3.5 mph - N/A   Overcast
3:31 AM 62.6 °F 62.6 °F 100% 30.17 in 3.0 mi NW 3.5 mph - N/A   Overcast
3:37 AM 62.6 °F 62.6 °F 100% 30.17 in 4.0 mi NW 3.5 mph - N/A   Overcast
3:38 AM 62.6 °F 62.6 °F 100% 30.16 in 4.0 mi NW 4.6 mph - N/A   Overcast
3:39 AM 62.6 °F 62.6 °F 100% 30.17 in 5.0 mi NW 4.6 mph - N/A   Overcast
3:55 AM 62.2 °F 62.2 °F 100% 30.17 in 10.0 mi Calm Calm - N/A   Overcast
4:01 AM 62.6 °F 62.6 °F 100% 30.17 in 10.0 mi Calm Calm - N/A   Overcast
4:02 AM 62.6 °F 62.6 °F 100% 30.17 in 10.0 mi Calm Calm - N/A   Overcast
4:55 AM 62.2 °F 62.2 °F 100% 30.16 in 10.0 mi Calm Calm - N/A   Overcast
5:55 AM 62.1 °F 62.1 °F 100% 30.18 in 10.0 mi NNW 6.9 mph - N/A   Overcast
6:23 AM 62.6 °F 62.6 °F 100% 30.19 in 10.0 mi NW 6.9 mph - N/A   Overcast
6:30 AM 62.6 °F 62.6 °F 100% 30.19 in 10.0 mi NNW 6.9 mph - N/A   Overcast
6:40 AM 62.6 °F 62.6 °F 100% 30.19 in 10.0 mi North 8.1 mph - N/A   Overcast
6:53 AM 62.6 °F 62.6 °F 100% 30.19 in 10.0 mi North 6.9 mph - N/A   Overcast
6:55 AM 62.1 °F 62.1 °F 100% 30.19 in 10.0 mi North 6.9 mph - N/A   Overcast
7:47 AM 62.6 °F 62.6 °F 100% 30.21 in 10.0 mi NNW 8.1 mph - N/A   Overcast
7:55 AM 62.2 °F 62.2 °F 100% 30.21 in 10.0 mi NNW 9.2 mph - N/A   Overcast
8:06 AM 62.6 °F 62.6 °F 100% 30.22 in 10.0 mi NW 10.4 mph - N/A   Overcast
8:38 AM 59.0 °F 59.0 °F 100% 30.22 in 10.0 mi NW 10.4 mph - N/A   Overcast
8:55 AM 58.8 °F 58.8 °F 100% 30.24 in 10.0 mi NW 10.4 mph - N/A   Overcast
9:24 AM 59.0 °F 59.0 °F 100% 30.24 in 10.0 mi NNW 11.5 mph - N/A   Overcast
9:28 AM 59.0 °F 59.0 °F 100% 30.25 in 10.0 mi NNW 10.4 mph - N/A   Overcast
9:36 AM 59.0 °F 59.0 °F 100% 30.25 in 10.0 mi NNW 11.5 mph - N/A   Overcast
9:42 AM 59.0 °F 59.0 °F 100% 30.25 in 10.0 mi NNW 8.1 mph - N/A   Overcast
9:52 AM 59.0 °F 59.0 °F 100% 30.25 in 10.0 mi NNW 11.5 mph - N/A   Overcast
9:55 AM 59.4 °F 59.4 °F 100% 30.25 in 10.0 mi NNW 10.4 mph - N/A   Overcast
9:56 AM 59.0 °F 59.0 °F 100% 30.25 in 10.0 mi NNW 10.4 mph - N/A   Overcast
10:03 AM 59.0 °F 59.0 °F 100% 30.25 in 10.0 mi NNW 8.1 mph - N/A   Overcast
10:20 AM 60.8 °F 60.8 °F 100% 30.25 in 10.0 mi NNW 9.2 mph - N/A   Overcast
10:35 AM 62.6 °F 57.2 °F 82% 30.25 in 10.0 mi NNW 6.9 mph - N/A   Overcast
10:43 AM 62.6 °F 57.2 °F 82% 30.25 in 10.0 mi NNW 6.9 mph - N/A   Overcast
10:55 AM 63.7 °F 57.4 °F 80% 30.25 in 10.0 mi NNW 6.9 mph - N/A   Overcast
11:55 AM 66.4 °F 57.4 °F 73% 30.23 in 10.0 mi NNW 8.1 mph - N/A   Overcast
12:01 PM 66.2 °F 57.2 °F 73% 30.22 in 10.0 mi North 9.2 mph - N/A   Overcast
12:46 PM 68.0 °F 57.2 °F 68% 30.19 in 10.0 mi North 4.6 mph - N/A   Mostly Cloudy
12:55 PM 68.2 °F 57.6 °F 69% 30.19 in 10.0 mi Variable 5.8 mph - N/A   Mostly Cloudy
1:55 PM 70.2 °F 58.3 °F 66% 30.16 in 10.0 mi NNE 6.9 mph - N/A   Partly Cloudy
2:55 PM 71.2 °F 57.6 °F 62% 30.16 in 10.0 mi WNW 3.5 mph - N/A   Scattered Clouds
3:55 PM 71.1 °F 57.2 °F 61% 30.16 in 10.0 mi NNW 8.1 mph - N/A   Overcast
4:55 PM 68.9 °F 57.0 °F 66% 30.16 in 10.0 mi North 8.1 mph - N/A   Overcast
5:55 PM 66.7 °F 55.0 °F 66% 30.17 in 10.0 mi North 10.4 mph - N/A   Overcast
6:55 PM 64.8 °F 54.0 °F 68% 30.18 in 10.0 mi North 5.8 mph - N/A   Overcast
7:55 PM 62.4 °F 53.6 °F 73% 30.19 in 10.0 mi North 5.8 mph - N/A   Overcast
8:55 PM 59.7 °F 51.6 °F 75% 30.20 in 10.0 mi North 5.8 mph - N/A   Partly Cloudy
9:55 PM 59.9 °F 52.9 °F 78% 30.21 in 10.0 mi North 4.6 mph - N/A   Overcast
10:55 PM 57.9 °F 51.3 °F 78% 30.22 in 10.0 mi NNW 5.8 mph - N/A   Mostly Cloudy
11:21 PM 57.2 °F 51.8 °F 82% 30.21 in 10.0 mi NNW 5.8 mph - N/A   Mostly Cloudy
11:31 PM 59.0 °F 51.8 °F 77% 30.21 in 10.0 mi North 4.6 mph - N/A   Overcast
11:55 PM 59.2 °F 53.8 °F 82% 30.21 in 10.0 mi NNE 5.8 mph - N/A   Overcast
11:57 PM 59.0 °F 53.6 °F 82% 30.21 in 10.0 mi NNE 5.8 mph - N/A   Overcast
11:59 PM 59.0 °F 55.4 °F 88% 30.21 in 10.0 mi NNE 5.8 mph - N/A   Overcast